| time (UTC) | temp F | wind direction | speed MPH | gust MPH | rain 1hr in | rain 24hr in | rain mn in | humidity % | barometer mb |
| 20260901105700 | 55 | 109 | 0.0 | 0.0 | 0.00 | 0.00 | 0.00 | 96 | 1007.8 |
| 20260901104639 | 55 | 110 | 0.0 | 0.0 | 0.00 | 0.00 | 0.00 | 96 | 1007.9 |
| 20260901103634 | 55 | 109 | 0.0 | 0.0 | 0.00 | 0.00 | 0.00 | 96 | 1007.8 |
| 20260901102628 | 55 | 109 | 0.0 | 0.0 | 0.00 | 0.00 | 0.00 | 96 | 1007.9 |
| 20260901101617 | 55 | 109 | 0.0 | 0.0 | 0.00 | 0.00 | 0.00 | 96 | 1007.7 |
| 20260901100615 | 55 | 109 | 0.0 | 0.0 | 0.00 | 0.00 | 0.00 | 95 | 1007.7 |
| 20260901095549 | 55 | 109 | 0.0 | 0.0 | 0.00 | 0.00 | 0.00 | 95 | 1007.5 |
| 20260901094522 | 55 | 108 | 0.0 | 0.0 | 0.00 | 0.00 | 0.00 | 95 | 1007.4 |
| 20260901093517 | 55 | 108 | 0.0 | 0.0 | 0.00 | 0.00 | 0.00 | 95 | 1007.5 |
| 20260901092459 | 55 | 108 | 0.0 | 0.0 | 0.00 | 0.00 | 0.00 | 95 | 1007.4 |
| 20260901091458 | 56 | 108 | 0.0 | 0.0 | 0.00 | 0.00 | 0.00 | 94 | 1007.5 |
| 20260901090440 | 56 | 108 | 0.0 | 0.0 | 0.00 | 0.00 | 0.00 | 94 | 1007.4 |
| 20260901085407 | 56 | 108 | 0.0 | 0.0 | 0.00 | 0.00 | 0.00 | 93 | 1007.3 |
| 20260901084407 | 56 | 108 | 0.0 | 0.0 | 0.00 | 0.00 | 0.00 | 93 | 1007.3 |
| 20260901083342 | 56 | 108 | 0.0 | 0.0 | 0.00 | 0.00 | 0.00 | 92 | 1007.4 |
| 20260901082317 | 57 | 108 | 0.0 | 0.0 | 0.00 | 0.00 | 0.00 | 92 | 1007.4 |
| 20260901081247 | 57 | 108 | 0.0 | 0.0 | 0.00 | 0.00 | 0.00 | 92 | 1007.3 |
| 20260901080218 | 57 | 109 | 0.0 | 0.0 | 0.00 | 0.00 | 0.00 | 92 | 1007.2 |
| 20260901075211 | 57 | 109 | 0.0 | 0.0 | 0.00 | 0.00 | 0.00 | 91 | 1007.0 |
| 20260901074208 | 57 | 108 | 0.0 | 0.0 | 0.00 | 0.00 | 0.00 | 91 | 1007.0 |
| 20260901073149 | 57 | 108 | 0.0 | 0.0 | 0.00 | 0.00 | 0.00 | 90 | 1007.0 |
| 20260901072130 | 57 | 108 | 0.0 | 0.0 | 0.00 | 0.00 | 0.00 | 89 | 1006.8 |
| 20260901071102 | 58 | 108 | 0.0 | 0.0 | 0.00 | 0.00 | 0.00 | 88 | 1006.9 |
| 20260901070038 | 59 | 108 | 0.0 | 0.0 | 0.00 | 0.00 | 0.00 | 87 | 1006.9 |
| 20260901065009 | 59 | 108 | 0.0 | 0.0 | 0.00 | 0.00 | 0.00 | 87 | 1006.8 |
| 20260901063418 | 59 | 108 | 0.0 | 0.0 | 0.00 | 0.00 | 0.00 | 86 | 1007.0 |
| 20260901062355 | 59 | 109 | 0.0 | 0.0 | 0.00 | 0.00 | 0.00 | 85 | 1007.0 |
| 20260901061322 | 60 | 108 | 0.0 | 0.0 | 0.00 | 0.00 | 0.00 | 84 | 1007.0 |
| 20260901060305 | 60 | 109 | 0.0 | 0.0 | 0.00 | 0.00 | 0.00 | 83 | 1007.0 |
| 20260901055256 | 60 | 109 | 0.0 | 0.0 | 0.00 | 0.00 | 0.00 | 82 | 1007.2 |
| 20260901054244 | 60 | 108 | 0.0 | 0.0 | 0.00 | 0.00 | 0.00 | 83 | 1007.1 |
| 20260901053228 | 60 | 108 | 0.0 | 0.0 | 0.00 | 0.00 | 0.00 | 82 | 1007.2 |
| 20260901052226 | 61 | 108 | 0.0 | 0.0 | 0.00 | 0.00 | 0.00 | 81 | 1007.2 |
| 20260901051159 | 61 | 109 | 0.0 | 0.0 | 0.00 | 0.00 | 0.00 | 79 | 1007.1 |
| 20260901050158 | 61 | 108 | 0.0 | 0.0 | 0.00 | 0.00 | 0.00 | 80 | 1007.2 |
| 20260901045151 | 62 | 108 | 0.0 | 0.0 | 0.00 | 0.00 | 0.00 | 79 | 1007.2 |
| 20260901044138 | 62 | 108 | 0.0 | 0.0 | 0.00 | 0.00 | 0.00 | 78 | 1007.4 |
| 20260901043118 | 63 | 108 | 0.0 | 0.0 | 0.00 | 0.00 | 0.00 | 76 | 1007.1 |
| 20260901042047 | 63 | 108 | 0.0 | 0.0 | 0.00 | 0.00 | 0.00 | 75 | 1007.4 |
| 20260901041016 | 63 | 107 | 0.0 | 0.0 | 0.00 | 0.00 | 0.00 | 76 | 1007.2 |
| 20260901040002 | 64 | 105 | 0.0 | 0.0 | 0.00 | 0.00 | 0.00 | 73 | 1007.2 |
| 20260901034923 | 64 | 101 | 0.0 | 0.0 | 0.00 | 0.00 | 0.00 | 73 | 1007.0 |
| 20260901033912 | 65 | 108 | 0.0 | 0.0 | 0.00 | 0.00 | 0.00 | 72 | 1006.9 |
| 20260901032840 | 65 | 102 | 0.0 | 0.0 | 0.00 | 0.00 | 0.00 | 72 | 1006.7 |
| 20260901031822 | 66 | 104 | 0.0 | 0.0 | 0.00 | 0.00 | 0.00 | 71 | 1006.8 |
| 20260901030743 | 66 | 102 | 0.0 | 0.0 | 0.00 | 0.00 | 0.00 | 69 | 1006.6 |
| 20260901025730 | 67 | 102 | 0.0 | 0.0 | 0.00 | 0.00 | 0.00 | 67 | 1006.6 |
| 20260901024705 | 68 | 104 | 0.0 | 0.0 | 0.00 | 0.00 | 0.00 | 64 | 1006.5 |
| 20260901023647 | 69 | 85 | 0.0 | 1.0 | 0.00 | 0.00 | 0.00 | 63 | 1006.8 |
| 20260901022624 | 69 | 71 | 2.0 | 3.0 | 0.00 | 0.00 | 0.00 | 62 | 1006.8 |
| 20260901021602 | 70 | 60 | 2.0 | 3.0 | 0.00 | 0.00 | 0.00 | 62 | 1006.7 |
| 20260901020529 | 70 | 99 | 1.0 | 1.0 | 0.00 | 0.00 | 0.00 | 61 | 1006.8 |
| 20260901015521 | 71 | 90 | 0.0 | 0.0 | 0.00 | 0.00 | 0.00 | 61 | 1006.7 |
| 20260901014457 | 72 | 82 | 0.0 | 0.0 | 0.00 | 0.00 | 0.00 | 60 | 1006.8 |
| 20260901013418 | 73 | 93 | 0.0 | 0.0 | 0.00 | 0.00 | 0.00 | 59 | 1006.8 |
| 20260901012409 | 74 | 88 | 3.0 | 3.0 | 0.00 | 0.00 | 0.00 | 56 | 1006.7 |
| 20260901011357 | 74 | 104 | 1.0 | 1.0 | 0.00 | 0.00 | 0.00 | 56 | 1006.9 |
| 20260901010333 | 73 | 89 | 2.0 | 3.0 | 0.00 | 0.00 | 0.00 | 56 | 1006.7 |
| 20260901005308 | 74 | 128 | 1.0 | 2.0 | 0.00 | 0.00 | 0.00 | 54 | 1006.7 |
| 20260901004305 | 75 | 275 | 2.0 | 3.0 | 0.00 | 0.00 | 0.00 | 53 | 1006.5 |
| 20260901003231 | 76 | 98 | 1.0 | 1.0 | 0.00 | 0.00 | 0.00 | 51 | 1006.6 |
| 20260901002222 | 78 | 136 | 0.0 | 2.0 | 0.00 | 0.00 | 0.00 | 50 | 1006.7 |
| 20260901001201 | 78 | 237 | 4.0 | 6.0 | 0.00 | 0.00 | 0.00 | 48 | 1006.9 |
| 20260901000136 | 79 | 105 | 0.0 | 0.0 | 0.00 | 0.00 | 0.00 | 49 | 1006.9 |
| 20260831235133 | 78 | 87 | 1.0 | 1.0 | 0.00 | 0.00 | 0.00 | 49 | 1007.0 |
| 20260831234109 | 78 | 89 | 2.0 | 2.0 | 0.00 | 0.00 | 0.00 | 49 | 1007.1 |
| 20260831233053 | 78 | 82 | 3.0 | 3.0 | 0.00 | 0.00 | 0.00 | 49 | 1007.3 |
| 20260831232014 | 77 | 40 | 1.0 | 2.0 | 0.00 | 0.00 | 0.00 | 50 | 1007.3 |
| 20260831230952 | 78 | 65 | 2.0 | 3.0 | 0.00 | 0.00 | 0.00 | 49 | 1007.3 |
| 20260831225946 | 77 | 63 | 2.0 | 2.0 | 0.00 | 0.00 | 0.00 | 50 | 1007.7 |
| 20260831224925 | 77 | 137 | 0.0 | 1.0 | 0.00 | 0.00 | 0.00 | 49 | 1007.6 |
| 20260831223910 | 77 | 357 | 4.0 | 6.0 | 0.00 | 0.00 | 0.00 | 49 | 1007.8 |
| 20260831222905 | 77 | 72 | 2.0 | 2.0 | 0.00 | 0.00 | 0.00 | 50 | 1007.8 |
| 20260831221858 | 77 | 131 | 1.0 | 2.0 | 0.00 | 0.00 | 0.00 | 50 | 1007.9 |
| 20260831220816 | 75 | 105 | 0.0 | 0.0 | 0.00 | 0.00 | 0.00 | 53 | 1008.1 |
| 20260831215759 | 75 | 78 | 3.0 | 3.0 | 0.00 | 0.00 | 0.00 | 52 | 1008.4 |
| 20260831214730 | 75 | 31 | 2.0 | 2.0 | 0.00 | 0.00 | 0.00 | 53 | 1008.3 |
| 20260831213721 | 75 | 9 | 4.0 | 4.0 | 0.00 | 0.00 | 0.00 | 52 | 1008.2 |
| 20260831212705 | 75 | 159 | 1.0 | 3.0 | 0.00 | 0.00 | 0.00 | 53 | 1008.5 |
| 20260831211650 | 74 | 104 | 0.0 | 0.0 | 0.00 | 0.00 | 0.00 | 55 | 1008.8 |
| 20260831210632 | 75 | 275 | 2.0 | 2.0 | 0.00 | 0.00 | 0.00 | 53 | 1008.6 |
| 20260831205621 | 73 | 355 | 4.0 | 4.0 | 0.00 | 0.00 | 0.00 | 55 | 1008.9 |
| 20260831204551 | 73 | 135 | 3.0 | 4.0 | 0.00 | 0.00 | 0.00 | 56 | 1009.0 |
| 20260831203548 | 72 | 103 | 1.0 | 2.0 | 0.00 | 0.00 | 0.00 | 57 | 1009.1 |
| 20260831202530 | 71 | 135 | 2.0 | 4.0 | 0.00 | 0.00 | 0.00 | 58 | 1009.3 |
| 20260831201458 | 72 | 124 | 0.0 | 0.0 | 0.00 | 0.00 | 0.00 | 58 | 1009.1 |
| 20260831200430 | 71 | 329 | 3.0 | 3.0 | 0.00 | 0.00 | 0.00 | 60 | 1009.5 |
| 20260831195411 | 71 | 287 | 2.0 | 3.0 | 0.00 | 0.00 | 0.00 | 59 | 1009.7 |
| 20260831194347 | 71 | 101 | 2.0 | 2.0 | 0.00 | 0.00 | 0.00 | 61 | 1009.9 |
| 20260831193335 | 70 | 177 | 2.0 | 2.0 | 0.00 | 0.00 | 0.00 | 61 | 1009.9 |
| 20260831192312 | 70 | 21 | 4.0 | 6.0 | 0.00 | 0.00 | 0.00 | 61 | 1010.0 |
| 20260831191257 | 71 | 26 | 2.0 | 4.0 | 0.00 | 0.00 | 0.00 | 60 | 1010.2 |
| 20260831190250 | 69 | 110 | 2.0 | 2.0 | 0.00 | 0.00 | 0.00 | 62 | 1010.3 |
| 20260831185231 | 69 | 97 | 2.0 | 3.0 | 0.00 | 0.00 | 0.00 | 62 | 1010.6 |
| 20260831184159 | 69 | 104 | 1.0 | 2.0 | 0.00 | 0.00 | 0.00 | 64 | 1010.8 |
| 20260831183137 | 67 | 102 | 1.0 | 2.0 | 0.00 | 0.00 | 0.00 | 66 | 1010.9 |
| 20260831182120 | 67 | 97 | 1.0 | 1.0 | 0.00 | 0.00 | 0.00 | 68 | 1010.9 |
| 20260831181101 | 66 | 188 | 2.0 | 3.0 | 0.00 | 0.00 | 0.00 | 69 | 1011.0 |
| 20260831180041 | 67 | 68 | 1.0 | 2.0 | 0.00 | 0.00 | 0.00 | 70 | 1011.2 |
| 20260831175032 | 65 | 6 | 2.0 | 3.0 | 0.00 | 0.00 | 0.00 | 73 | 1011.2 |
| 20260831174012 | 64 | 96 | 2.0 | 3.0 | 0.00 | 0.00 | 0.00 | 73 | 1011.4 |
| 20260831172957 | 64 | 107 | 0.0 | 1.0 | 0.00 | 0.00 | 0.00 | 75 | 1011.4 |
| 20260831171947 | 64 | 106 | 0.0 | 0.0 | 0.00 | 0.00 | 0.00 | 75 | 1011.3 |
| 20260831170923 | 63 | 96 | 0.0 | 0.0 | 0.00 | 0.00 | 0.00 | 77 | 1011.6 |
| 20260831165917 | 62 | 100 | 0.0 | 0.0 | 0.00 | 0.00 | 0.00 | 79 | 1011.6 |
| 20260831164917 | 60 | 93 | 0.0 | 0.0 | 0.00 | 0.00 | 0.00 | 82 | 1011.8 |
| 20260831163906 | 59 | 115 | 1.0 | 1.0 | 0.00 | 0.00 | 0.00 | 83 | 1011.8 |
| 20260831162841 | 59 | 97 | 0.0 | 1.0 | 0.00 | 0.00 | 0.00 | 83 | 1011.9 |
| 20260831161830 | 58 | 109 | 1.0 | 1.0 | 0.00 | 0.00 | 0.00 | 83 | 1012.2 |
| 20260831160801 | 57 | 88 | 1.0 | 1.0 | 0.00 | 0.00 | 0.00 | 84 | 1012.3 |
| 20260831155746 | 56 | 99 | 0.0 | 0.0 | 0.00 | 0.00 | 0.00 | 85 | 1012.1 |
| 20260831154742 | 56 | 85 | 1.0 | 1.0 | 0.00 | 0.00 | 0.00 | 87 | 1012.3 |
| 20260831153724 | 55 | 91 | 0.0 | 0.0 | 0.00 | 0.00 | 0.00 | 88 | 1012.5 |
| 20260831152716 | 54 | 98 | 0.0 | 0.0 | 0.00 | 0.00 | 0.00 | 90 | 1012.6 |
| 20260831151654 | 53 | 96 | 0.0 | 0.0 | 0.00 | 0.00 | 0.00 | 94 | 1012.4 |
| 20260831150624 | 52 | 102 | 0.0 | 0.0 | 0.00 | 0.00 | 0.00 | 97 | 1012.5 |
| 20260831145550 | 51 | 103 | 0.0 | 0.0 | 0.00 | 0.00 | 0.00 | 98 | 1012.6 |
| 20260831144548 | 51 | 103 | 0.0 | 0.0 | 0.00 | 0.00 | 0.00 | 98 | 1012.3 |
| 20260831143519 | 50 | 104 | 0.0 | 0.0 | 0.00 | 0.00 | 0.00 | 98 | 1012.5 |
| 20260831142453 | 50 | 107 | 0.0 | 0.0 | 0.00 | 0.00 | 0.00 | 98 | 1012.4 |
| 20260831141432 | 49 | 106 | 0.0 | 0.0 | 0.00 | 0.00 | 0.00 | 98 | 1012.3 |
| 20260831140424 | 49 | 107 | 0.0 | 0.0 | 0.00 | 0.00 | 0.00 | 98 | 1012.5 |
| 20260831135402 | 49 | 106 | 0.0 | 0.0 | 0.00 | 0.00 | 0.00 | 98 | 1012.5 |
| 20260831134348 | 49 | 107 | 0.0 | 0.0 | 0.00 | 0.00 | 0.00 | 98 | 1012.4 |
| 20260831133337 | 49 | 106 | 0.0 | 0.0 | 0.00 | 0.00 | 0.00 | 97 | 1012.3 |
| 20260831132313 | 49 | 107 | 0.0 | 0.0 | 0.00 | 0.00 | 0.00 | 97 | 1012.3 |
| 20260831131257 | 49 | 107 | 0.0 | 0.0 | 0.00 | 0.00 | 0.00 | 97 | 1012.5 |
| 20260831130235 | 49 | 107 | 0.0 | 0.0 | 0.00 | 0.00 | 0.00 | 97 | 1012.5 |
| 20260831125222 | 49 | 107 | 0.0 | 0.0 | 0.00 | 0.00 | 0.00 | 97 | 1012.6 |
| 20260831124222 | 50 | 107 | 0.0 | 0.0 | 0.00 | 0.00 | 0.00 | 97 | 1012.7 |
| 20260831123206 | 51 | 107 | 0.0 | 0.0 | 0.00 | 0.00 | 0.00 | 97 | 1012.7 |
| 20260831122200 | 51 | 107 | 0.0 | 0.0 | 0.00 | 0.00 | 0.00 | 97 | 1012.8 |
| 20260831121140 | 51 | 107 | 0.0 | 0.0 | 0.00 | 0.00 | 0.00 | 96 | 1012.9 |
| 20260831120130 | 51 | 107 | 0.0 | 0.0 | 0.00 | 0.00 | 0.00 | 96 | 1012.7 |
| 20260831115112 | 51 | 107 | 0.0 | 0.0 | 0.00 | 0.00 | 0.00 | 96 | 1013.0 |
| 20260831114044 | 51 | 109 | 0.0 | 0.0 | 0.00 | 0.00 | 0.00 | 96 | 1012.8 |
| 20260831113038 | 51 | 106 | 0.0 | 0.0 | 0.00 | 0.00 | 0.00 | 96 | 1013.0 |
| 20260831112031 | 51 | 106 | 0.0 | 0.0 | 0.00 | 0.00 | 0.00 | 95 | 1013.1 |
| 20260831111021 | 51 | 106 | 0.0 | 0.0 | 0.00 | 0.00 | 0.00 | 95 | 1013.0 |